Tri-Cities, TN

4:23 PM EDT on April 28, 2017 (GMT -0400)
Tri-Cities Regional Tennessee / Virginia

Weather History for KTRI - March, 2013

Change the Weather History Date:

Wednesday, March 27, 2013

  Actual Average Record
Temperature  
Mean Temperature 37 °F 50 °F  
Max Temperature 44 °F 62 °F 82 °F (1989)
Min Temperature 30 °F 37 °F 12 °F (1955)
Degree Days  
Heating Degree Days 28 15  
Month to date heating degree days 663 509  
Since 1 July heating degree days 3832 3891  
Cooling Degree Days 0 0  
Month to date cooling degree days 0 0  
Year to date cooling degree days 0 0  
Moisture  
Dew Point 24 °F    
Average Humidity 65    
Maximum Humidity 85    
Minimum Humidity 45    
Precipitation  
Precipitation T in 0.12 in 2.95 in (1994)
Month to date precipitation 4.01 2.99  
Year to date precipitation 15.86 9.81  
Snow  
Snow T in 0.00 in - ()
Month to date snowfall 1.5 1.3  
Since 1 July snowfall 9.2 12.1  
Snow Depth 0.00 in    
Sea Level Pressure  
Sea Level Pressure 30.25 in    
Wind  
Wind Speed 7 mph (West)    
Max Wind Speed 16 mph    
Max Gust Speed 20 mph    
Visibility 9 miles    
Events Snow    
T = Trace of Precipitation, MM = Missing Value Source: NWS Daily Summary

Daily Weather History Graph

Daily Weather History Graph

Search for Another Location

Airport or City:

Trip Planner

Search our weather history database for the weather conditions in past years. The results will help you decide how hot, cold, wet, or windy it might be!

Date:

Astronomy

Mar. 27, 2013 Rise Set
Actual Time 7:22 AM EDT 7:47 PM EDT
Civil Twilight 6:56 AM EDT 8:13 PM EDT
Nautical Twilight 6:26 AM EDT 8:43 PM EDT
Astronomical Twilight 5:55 AM EDT 9:14 PM EDT
Moon 8:27 PM EDT (3/27) 7:14 AM EDT (3/27)
Length of Visible Light 13h 16m
Length of Day
12h 25m
Full, 100% of the Moon is Illuminated
Mar 27
Full
Apr 3
Last Quarter
Apr 10
New
Apr 18
First Quarter
Apr 25
Full

Hourly Weather History & Observations

Time (EDT) Temp. Windchill Dew Point Humidity Pressure Visibility Wind Dir Wind Speed Gust Speed Precip Events Conditions
12:01 AM 33.1 °F 23.9 °F 28.0 °F 82% 30.22 in 9.0 mi West 12.7 mph - 0.00 in Snow Light Snow
12:33 AM 33.1 °F 26.9 °F 28.0 °F 82% 30.22 in 7.0 mi West 6.9 mph - 0.00 in Snow Light Snow
12:53 AM 33.1 °F 26.1 °F 28.0 °F 82% 30.22 in 8.0 mi West 8.1 mph - 0.00 in Snow Light Snow
1:53 AM 33.1 °F 26.1 °F 28.0 °F 82% 30.22 in 6.0 mi West 8.1 mph - 0.00 in Snow Light Snow
2:53 AM 32.0 °F 25.6 °F 28.0 °F 85% 30.21 in 7.0 mi West 6.9 mph - 0.00 in Snow Light Snow
3:00 AM 32.0 °F 25.6 °F 28.0 °F 85% 30.21 in 9.0 mi West 6.9 mph - 0.00 in Snow Light Snow
3:24 AM 32.0 °F 24.8 °F 28.0 °F 85% 30.21 in 8.0 mi West 8.1 mph - 0.00 in Snow Light Snow
3:42 AM 32.0 °F 26.4 °F 27.0 °F 82% 30.21 in 9.0 mi West 5.8 mph - 0.00 in Snow Light Snow
3:53 AM 32.0 °F 25.6 °F 27.0 °F 82% 30.21 in 9.0 mi West 6.9 mph - 0.00 in Snow Light Snow
4:53 AM 30.0 °F 24.1 °F 25.0 °F 82% 30.22 in 9.0 mi West 5.8 mph - 0.00 in Snow Light Snow
5:53 AM 30.9 °F 24.3 °F 26.1 °F 82% 30.22 in 9.0 mi West 6.9 mph - 0.00 in Snow Light Snow
6:53 AM 30.9 °F 27.5 °F 25.0 °F 79% 30.25 in 9.0 mi West 3.5 mph - 0.00 in Snow Light Snow
7:53 AM 32.0 °F 27.5 °F 24.1 °F 73% 30.26 in 10.0 mi West 4.6 mph - 0.00 in   Overcast
8:53 AM 33.1 °F 26.1 °F 21.9 °F 64% 30.28 in 10.0 mi WNW 8.1 mph - N/A   Overcast
9:53 AM 34.0 °F 27.2 °F 21.0 °F 59% 30.29 in 10.0 mi WNW 8.1 mph - N/A   Overcast
10:53 AM 34.0 °F 27.2 °F 19.9 °F 56% 30.29 in 10.0 mi WNW 8.1 mph - N/A   Overcast
11:53 AM 37.0 °F 30.4 °F 19.9 °F 50% 30.29 in 10.0 mi NNW 9.2 mph - N/A   Overcast
12:53 PM 37.0 °F 28.5 °F 21.9 °F 54% 30.30 in 10.0 mi WNW 13.8 mph - N/A   Overcast
1:53 PM 37.9 °F 30.9 °F 23.0 °F 55% 30.30 in 10.0 mi WSW 10.4 mph - N/A   Mostly Cloudy
2:53 PM 39.9 °F 33.4 °F 23.0 °F 51% 30.27 in 10.0 mi West 10.4 mph - N/A   Mostly Cloudy
3:53 PM 41.0 °F 37.1 °F 21.9 °F 47% 30.25 in 10.0 mi NNW 5.8 mph - N/A   Mostly Cloudy
4:53 PM 39.9 °F 35.1 °F 21.0 °F 47% 30.25 in 10.0 mi NNW 6.9 mph - N/A   Mostly Cloudy
5:53 PM 41.0 °F 34.7 °F 21.2 °F 45% 30.26 in 10.0 mi West 10.4 mph - N/A   Mostly Cloudy
6:00 PM 41.0 °F 34.7 °F 21.2 °F 45% 30.26 in 10.0 mi West 10.4 mph - N/A   Mostly Cloudy
6:02 PM 41.0 °F 34.7 °F 21.2 °F 45% 30.26 in 10.0 mi West 10.4 mph - N/A   Mostly Cloudy
6:04 PM 41.0 °F 34.7 °F 21.2 °F 45% 30.26 in 10.0 mi West 10.4 mph - N/A   Mostly Cloudy
6:06 PM 41.0 °F 34.7 °F 21.2 °F 45% 30.26 in 10.0 mi West 10.4 mph - N/A   Mostly Cloudy
6:53 PM 39.9 °F 35.1 °F 21.0 °F 47% 30.26 in 10.0 mi NW 6.9 mph - N/A   Mostly Cloudy
7:53 PM 37.9 °F 31.5 °F 21.0 °F 51% 30.26 in 10.0 mi West 9.2 mph - N/A   Mostly Cloudy
8:53 PM 37.0 °F 31.6 °F 21.0 °F 52% 30.27 in 10.0 mi WSW 6.9 mph - N/A   Mostly Cloudy
9:53 PM 36.0 °F 29.6 °F 21.0 °F 55% 30.28 in 10.0 mi West 8.1 mph - N/A   Mostly Cloudy
10:53 PM 35.1 °F 29.3 °F 21.0 °F 57% 30.29 in 10.0 mi West 6.9 mph - N/A   Mostly Cloudy
11:53 PM 34.0 °F 31.0 °F 21.0 °F 59% 30.28 in 10.0 mi WNW 3.5 mph - N/A   Mostly Cloudy